CZ-6A DEB, 54272

Orbit data source: Space-Track

CZ-6A DEB, 54272 is space debris in SSO originally from a launch on Fri, 11 Nov 2022 UTC launched from the Taiyaun Space Center, China (TSC). Debris objects in space refer to the collection of defunct objects orbiting the Earth. Examples of debris include non-operational satellites, rocket bodies, and fragments generated from explosions, collisions, or faulty payload assembly.

Loading next visibility...
Identifier
54272, 2022-151P
Orbit
SSO
Country
Flag of CNCN / PRC
Related business
Manufacturer
SAST
Mission
Spacecraft
Bus & Motor
Unknown
Mass
Unknown
Launch date (UTC)
2022-11-11 (4 years ago)
Launch vehicle
Unknown
Launch site
Taiyaun Space Center, China (TSC)
Object type
Payload
Rocket body
Debris
Shape & HBR
Unknown shape, 0.2 m
Radar Cross Section
Medium (>0.1 m² and <1 m²)

Expand to show TLE details & history
Last TLE update: 2 days ago

TLE from 2 days ago
0 CZ-6A DEB
1 54272U 22151P   26171.34686267  .00000612  00000-0  29418-3 0  9996
2 54272  98.8398 205.6572 0028908 167.8303 192.3579 14.22344192186619
Epoch: 2026-06-20T08:19Z
TLE epoch observation values (Epoch: 2026-06-20T08:19:28.934Z)
Latitude
-0.00002°
Longitude
172.22385°
Altitude
840.675 km
Speed
7.422 km/s
True Right ascension
13h 42m 37s
True Declination
0° 00' 00"
Sunlit
Object was in daylight at epoch
Visualization orbit readout
Latitude
Unknown
Longitude
Unknown
Altitude
Unknown
Speed
Unknown
Apparent Right ascension
Unknown
Apparent Declination
Unknown
Sunlit
N/A
Visualization observer readout
Local Sidereal Time
21:47:54
Azimuth
Unknown
Elevation
Unknown
Doppler factor
Unknown
Orbital elements
Apogee altitude
835.39 km
Perigee altitude
793.805 km
Semi-major axis
7,192.735 km
Eccentricity
0.00289
Inclination
98.8398°
RAAN
205.6572°
Arg. of periapsis
167.8303°
True anomaly
192.28725°
Mean anomaly
192.3579°
Eccentric anomaly
192.32255°
Mean motion
3.55797 °/min
Orbital period
101.18 mins
BSTAR
0.00029418
Loading maneuver chart data...
Computing Atmospheric mass density...
Loading historical data...
Loading historical data...
Loading historical data...
Loading historical data...
Loading historical data...
Loading historical data...
Loading historical data...

Documentation

Showing up to 5 results
|